Year,Month,Day,Hour,Minute,Value (Times are PST for temperature in C)
2008,05,17,00,00,13.70
2008,05,17,00,01,13.70
2008,05,17,00,02,13.70
2008,05,17,00,03,13.70
2008,05,17,00,04,13.70
2008,05,17,00,05,13.60
2008,05,17,00,06,13.60
2008,05,17,00,07,13.60
2008,05,17,00,08,13.60
2008,05,17,00,09,13.60
2008,05,17,00,10,13.50
2008,05,17,00,11,13.50
2008,05,17,00,12,13.50
2008,05,17,00,13,13.50
2008,05,17,00,14,13.40
2008,05,17,00,15,13.40
2008,05,17,00,16,13.40
2008,05,17,00,17,13.40
2008,05,17,00,18,13.40
2008,05,17,00,19,13.30
2008,05,17,00,20,13.30
2008,05,17,00,21,13.30
2008,05,17,00,22,13.20
2008,05,17,00,23,13.20
2008,05,17,00,24,13.10
2008,05,17,00,25,13.10
2008,05,17,00,26,13.10
2008,05,17,00,27,13.00
2008,05,17,00,28,13.00
2008,05,17,00,29,12.90
2008,05,17,00,30,12.90
2008,05,17,00,31,12.90
2008,05,17,00,32,12.90
2008,05,17,00,33,12.90
2008,05,17,00,34,12.90
2008,05,17,00,35,12.80
2008,05,17,00,36,12.80
2008,05,17,00,37,12.80
2008,05,17,00,38,12.90
2008,05,17,00,39,12.80
2008,05,17,00,40,12.80
2008,05,17,00,41,12.80
2008,05,17,00,42,12.80
2008,05,17,00,43,12.80
2008,05,17,00,44,12.80
2008,05,17,00,45,12.80
2008,05,17,00,46,12.80
2008,05,17,00,47,12.80
2008,05,17,00,48,12.80
2008,05,17,00,49,12.80
2008,05,17,00,50,12.80
2008,05,17,00,51,12.80
2008,05,17,00,52,12.80
2008,05,17,00,53,12.80
2008,05,17,00,54,12.80
2008,05,17,00,55,12.80
2008,05,17,00,56,12.70
2008,05,17,00,57,12.70
2008,05,17,00,58,12.70
2008,05,17,00,59,12.70
2008,05,17,01,00,12.70
2008,05,17,01,01,12.70
2008,05,17,01,02,12.70
2008,05,17,01,03,12.70
2008,05,17,01,04,12.70
2008,05,17,01,05,12.70
2008,05,17,01,06,12.70
2008,05,17,01,07,12.70
2008,05,17,01,08,12.60
2008,05,17,01,09,12.60
2008,05,17,01,10,12.60
2008,05,17,01,11,12.60
2008,05,17,01,12,12.60
2008,05,17,01,13,12.60
2008,05,17,01,14,12.60
2008,05,17,01,15,12.60
2008,05,17,01,16,12.60
2008,05,17,01,17,12.60
2008,05,17,01,18,12.60
2008,05,17,01,19,12.60
2008,05,17,01,20,12.60
2008,05,17,01,21,12.60
2008,05,17,01,22,12.60
2008,05,17,01,23,12.60
2008,05,17,01,24,12.60
2008,05,17,01,25,12.60
2008,05,17,01,26,12.60
2008,05,17,01,27,12.60
2008,05,17,01,28,12.60
2008,05,17,01,29,12.60
2008,05,17,01,30,12.60
2008,05,17,01,31,12.60
2008,05,17,01,32,12.60
2008,05,17,01,33,12.60
2008,05,17,01,34,12.60
2008,05,17,01,35,12.60
2008,05,17,01,36,12.60
2008,05,17,01,37,12.60
2008,05,17,01,38,12.70
2008,05,17,01,39,12.70
2008,05,17,01,40,12.80
2008,05,17,01,41,12.80
2008,05,17,01,42,12.80
2008,05,17,01,43,12.90
2008,05,17,01,44,12.90
2008,05,17,01,45,13.00
2008,05,17,01,46,13.10
2008,05,17,01,47,13.20
2008,05,17,01,48,13.20
2008,05,17,01,49,13.20
2008,05,17,01,50,13.20
2008,05,17,01,51,13.20
2008,05,17,01,52,13.20
2008,05,17,01,53,13.20
2008,05,17,01,54,13.20
2008,05,17,01,55,13.10
2008,05,17,01,56,13.10
2008,05,17,01,57,13.10
2008,05,17,01,58,13.10
2008,05,17,01,59,13.10
2008,05,17,02,00,13.10
2008,05,17,02,01,13.10
2008,05,17,02,02,13.10
2008,05,17,02,03,13.10
2008,05,17,02,04,13.10
2008,05,17,02,05,13.20
2008,05,17,02,06,13.20
2008,05,17,02,07,13.30
2008,05,17,02,08,13.30
2008,05,17,02,09,13.40
2008,05,17,02,10,13.40
2008,05,17,02,11,13.50
2008,05,17,02,12,13.60
2008,05,17,02,13,13.70
2008,05,17,02,14,13.80
2008,05,17,02,15,13.80
2008,05,17,02,16,13.90
2008,05,17,02,17,14.00
2008,05,17,02,18,14.10
2008,05,17,02,19,14.10
2008,05,17,02,20,14.20
2008,05,17,02,21,14.20
2008,05,17,02,22,14.20
2008,05,17,02,23,14.30
2008,05,17,02,24,14.30
2008,05,17,02,25,14.30
2008,05,17,02,26,14.40
2008,05,17,02,27,14.40
2008,05,17,02,28,14.40
2008,05,17,02,29,14.40
2008,05,17,02,30,14.40
2008,05,17,02,31,14.50
2008,05,17,02,32,14.50
2008,05,17,02,33,14.50
2008,05,17,02,34,14.60
2008,05,17,02,35,14.60
2008,05,17,02,36,14.60
2008,05,17,02,37,14.50
2008,05,17,02,38,14.50
2008,05,17,02,39,14.50
2008,05,17,02,40,14.50
2008,05,17,02,41,14.50
2008,05,17,02,42,14.50
2008,05,17,02,43,14.50
2008,05,17,02,44,14.50
2008,05,17,02,45,14.50
2008,05,17,02,46,14.50
2008,05,17,02,47,14.60
2008,05,17,02,48,14.60
2008,05,17,02,49,14.60
2008,05,17,02,50,14.60
2008,05,17,02,51,14.70
2008,05,17,02,52,14.70
2008,05,17,02,53,14.70
2008,05,17,02,54,14.70
2008,05,17,02,55,14.70
2008,05,17,02,56,14.80
2008,05,17,02,57,14.80
2008,05,17,02,58,14.80
2008,05,17,02,59,14.80
2008,05,17,03,00,14.90
2008,05,17,03,01,14.90
2008,05,17,03,02,15.00
2008,05,17,03,03,15.00
2008,05,17,03,04,15.00
2008,05,17,03,05,15.00
2008,05,17,03,06,15.00
2008,05,17,03,07,15.00
2008,05,17,03,08,15.00
2008,05,17,03,09,15.00
2008,05,17,03,10,15.00
2008,05,17,03,11,15.10
2008,05,17,03,12,15.10
2008,05,17,03,13,15.20
2008,05,17,03,14,15.20
2008,05,17,03,15,15.20
2008,05,17,03,16,15.20
2008,05,17,03,17,15.20
2008,05,17,03,18,15.30
2008,05,17,03,19,15.30
2008,05,17,03,20,15.30
2008,05,17,03,21,15.30
2008,05,17,03,22,15.30
2008,05,17,03,23,15.30
2008,05,17,03,24,15.30
2008,05,17,03,25,15.30
2008,05,17,03,26,15.30
2008,05,17,03,27,15.30
2008,05,17,03,28,15.20
2008,05,17,03,29,15.20
2008,05,17,03,30,15.20
2008,05,17,03,31,15.20
2008,05,17,03,32,15.10
2008,05,17,03,33,15.10
2008,05,17,03,34,15.10
2008,05,17,03,35,15.10
2008,05,17,03,36,15.10
2008,05,17,03,37,15.10
2008,05,17,03,38,15.20
2008,05,17,03,39,15.20
2008,05,17,03,40,15.20
2008,05,17,03,41,15.30
2008,05,17,03,42,15.30
2008,05,17,03,43,15.30
2008,05,17,03,44,15.20
2008,05,17,03,45,15.20
2008,05,17,03,46,15.20
2008,05,17,03,47,15.20
2008,05,17,03,48,15.20
2008,05,17,03,49,15.20
2008,05,17,03,50,15.10
2008,05,17,03,51,15.10
2008,05,17,03,52,15.00
2008,05,17,03,53,15.00
2008,05,17,03,54,15.00
2008,05,17,03,55,15.00
2008,05,17,03,56,15.00
2008,05,17,03,57,15.00
2008,05,17,03,58,15.00
2008,05,17,03,59,15.00
2008,05,17,04,00,14.90
2008,05,17,04,01,14.80
2008,05,17,04,02,14.80
2008,05,17,04,03,14.70
2008,05,17,04,04,14.70
2008,05,17,04,05,14.70
2008,05,17,04,06,14.60
2008,05,17,04,07,14.60
2008,05,17,04,08,14.60
2008,05,17,04,09,14.50
2008,05,17,04,10,14.50
2008,05,17,04,11,14.50
2008,05,17,04,12,14.50
2008,05,17,04,13,14.50
2008,05,17,04,14,14.60
2008,05,17,04,15,14.60
2008,05,17,04,16,14.60
2008,05,17,04,17,14.60
2008,05,17,04,18,14.60
2008,05,17,04,19,14.60
2008,05,17,04,20,14.60
2008,05,17,04,21,14.60
2008,05,17,04,22,14.70
2008,05,17,04,23,14.70
2008,05,17,04,24,14.70
2008,05,17,04,25,14.70
2008,05,17,04,26,14.60
2008,05,17,04,27,14.60
2008,05,17,04,28,14.60
2008,05,17,04,29,14.60
2008,05,17,04,30,14.60
2008,05,17,04,31,14.60
2008,05,17,04,32,14.60
2008,05,17,04,33,14.60
2008,05,17,04,34,14.60
2008,05,17,04,35,14.70
2008,05,17,04,36,14.70
2008,05,17,04,37,14.80
2008,05,17,04,38,14.80
2008,05,17,04,39,14.80
2008,05,17,04,40,14.80
2008,05,17,04,41,14.80
2008,05,17,04,42,14.80
2008,05,17,04,43,14.70
2008,05,17,04,44,14.70
2008,05,17,04,45,14.70
2008,05,17,04,46,14.60
2008,05,17,04,47,14.60
2008,05,17,04,48,14.60
2008,05,17,04,49,14.50
2008,05,17,04,50,14.50
2008,05,17,04,51,14.40
2008,05,17,04,52,14.40
2008,05,17,04,53,14.30
2008,05,17,04,54,14.30
2008,05,17,04,55,14.30
2008,05,17,04,56,14.30
2008,05,17,04,57,14.30
2008,05,17,04,58,14.30
2008,05,17,04,59,14.30
2008,05,17,05,00,14.30
2008,05,17,05,01,14.30
2008,05,17,05,02,14.30
2008,05,17,05,03,14.30
2008,05,17,05,04,14.30
2008,05,17,05,05,14.30
2008,05,17,05,06,14.40
2008,05,17,05,07,14.60
2008,05,17,05,08,14.70
2008,05,17,05,09,14.80
2008,05,17,05,10,14.90
2008,05,17,05,11,15.00
2008,05,17,05,12,15.00
2008,05,17,05,13,15.00
2008,05,17,05,14,15.00
2008,05,17,05,15,15.00
2008,05,17,05,16,15.00
2008,05,17,05,17,15.00
2008,05,17,05,18,15.00
2008,05,17,05,19,15.00
2008,05,17,05,20,15.10
2008,05,17,05,21,15.20
2008,05,17,05,22,15.20
2008,05,17,05,23,15.20
2008,05,17,05,24,15.20
2008,05,17,05,25,15.20
2008,05,17,05,26,15.20
2008,05,17,05,27,15.20
2008,05,17,05,28,15.20
2008,05,17,05,29,15.20
2008,05,17,05,30,15.20
2008,05,17,05,31,15.20
2008,05,17,05,32,15.20
2008,05,17,05,33,15.20
2008,05,17,05,34,15.30
2008,05,17,05,35,15.30
2008,05,17,05,36,15.30
2008,05,17,05,37,15.30
2008,05,17,05,38,15.30
2008,05,17,05,39,15.30
2008,05,17,05,40,15.30
2008,05,17,05,41,15.40
2008,05,17,05,42,15.40
2008,05,17,05,43,15.40
2008,05,17,05,44,15.40
2008,05,17,05,45,15.40
2008,05,17,05,46,15.40
2008,05,17,05,47,15.40
2008,05,17,05,48,15.40
2008,05,17,05,49,15.40
2008,05,17,05,50,15.40
2008,05,17,05,51,15.50
2008,05,17,05,52,15.50
2008,05,17,05,53,15.60
2008,05,17,05,54,15.60
2008,05,17,05,55,15.60
2008,05,17,05,56,15.60
2008,05,17,05,57,15.60
2008,05,17,05,58,15.60
2008,05,17,05,59,15.60
2008,05,17,06,00,15.60
2008,05,17,06,01,15.60
2008,05,17,06,02,15.60
2008,05,17,06,03,15.60
2008,05,17,06,04,15.60
2008,05,17,06,05,15.60
2008,05,17,06,06,15.60
2008,05,17,06,07,15.70
2008,05,17,06,08,15.70
2008,05,17,06,09,15.70
2008,05,17,06,10,15.70
2008,05,17,06,11,15.80
2008,05,17,06,12,15.80
2008,05,17,06,13,15.80
2008,05,17,06,14,15.80
2008,05,17,06,15,15.80
2008,05,17,06,16,15.80
2008,05,17,06,17,15.80
2008,05,17,06,18,15.80
2008,05,17,06,19,15.90
2008,05,17,06,20,16.00
2008,05,17,06,21,16.00
2008,05,17,06,22,16.10
2008,05,17,06,23,16.20
2008,05,17,06,24,16.20
2008,05,17,06,25,16.30
2008,05,17,06,26,16.40
2008,05,17,06,27,16.50
2008,05,17,06,28,16.60
2008,05,17,06,29,16.60
2008,05,17,06,30,16.60
2008,05,17,06,31,16.70
2008,05,17,06,32,16.70
2008,05,17,06,33,16.80
2008,05,17,06,34,16.80
2008,05,17,06,35,16.80
2008,05,17,06,36,16.90
2008,05,17,06,37,16.90
2008,05,17,06,38,17.00
2008,05,17,06,39,17.00
2008,05,17,06,40,17.10
2008,05,17,06,41,17.10
2008,05,17,06,42,17.10
2008,05,17,06,43,17.20
2008,05,17,06,44,17.20
2008,05,17,06,45,17.20
2008,05,17,06,46,17.20
2008,05,17,06,47,17.30
2008,05,17,06,48,17.30
2008,05,17,06,49,17.30
2008,05,17,06,50,17.30
2008,05,17,06,51,17.30
2008,05,17,06,52,17.30
2008,05,17,06,53,17.30
2008,05,17,06,54,17.30
2008,05,17,06,55,17.30
2008,05,17,06,56,17.30
2008,05,17,06,57,17.20
2008,05,17,06,58,17.20
2008,05,17,06,59,17.20
2008,05,17,07,00,17.20
2008,05,17,07,01,17.20
2008,05,17,07,02,17.10
2008,05,17,07,03,17.10
2008,05,17,07,04,17.00
2008,05,17,07,05,17.00
2008,05,17,07,06,16.90
2008,05,17,07,07,16.90
2008,05,17,07,08,16.90
2008,05,17,07,09,16.80
2008,05,17,07,10,16.80
2008,05,17,07,11,16.70
2008,05,17,07,12,16.70
2008,05,17,07,13,16.60
2008,05,17,07,14,16.40
2008,05,17,07,15,16.30
2008,05,17,07,16,16.00
2008,05,17,07,17,15.80
2008,05,17,07,18,15.60
2008,05,17,07,19,15.30
2008,05,17,07,20,15.20
2008,05,17,07,21,15.00
2008,05,17,07,22,15.00
2008,05,17,07,23,15.00
2008,05,17,07,24,14.80
2008,05,17,07,25,14.70
2008,05,17,07,26,14.60
2008,05,17,07,27,14.60
2008,05,17,07,28,14.60
2008,05,17,07,29,14.60
2008,05,17,07,30,14.60
2008,05,17,07,31,14.60
2008,05,17,07,32,14.60
2008,05,17,07,33,14.60
2008,05,17,07,34,14.60
2008,05,17,07,35,14.60
2008,05,17,07,36,14.60
2008,05,17,07,37,14.70
2008,05,17,07,38,14.70
2008,05,17,07,39,14.70
2008,05,17,07,40,14.80
2008,05,17,07,41,14.80
2008,05,17,07,42,14.90
2008,05,17,07,43,15.00
2008,05,17,07,44,15.00
2008,05,17,07,45,15.00
2008,05,17,07,46,15.00
2008,05,17,07,47,15.00
2008,05,17,07,48,15.00
2008,05,17,07,49,15.10
2008,05,17,07,50,15.10
2008,05,17,07,51,15.20
2008,05,17,07,52,15.20
2008,05,17,07,53,15.20
2008,05,17,07,54,15.30
2008,05,17,07,55,15.30
2008,05,17,07,56,15.40
2008,05,17,07,57,15.60
2008,05,17,07,58,15.70
2008,05,17,07,59,15.80
2008,05,17,08,00,15.90
2008,05,17,08,01,16.00
2008,05,17,08,02,16.10
2008,05,17,08,03,16.20
2008,05,17,08,04,16.30
2008,05,17,08,05,16.40
2008,05,17,08,06,16.50
2008,05,17,08,07,16.60
2008,05,17,08,08,16.70
2008,05,17,08,09,16.80
2008,05,17,08,10,16.80
2008,05,17,08,11,16.90
2008,05,17,08,12,16.90
2008,05,17,08,13,17.00
2008,05,17,08,14,17.10
2008,05,17,08,15,17.10
2008,05,17,08,16,17.20
2008,05,17,08,17,17.20
2008,05,17,08,18,17.30
2008,05,17,08,19,17.30
2008,05,17,08,20,17.40
2008,05,17,08,21,17.40
2008,05,17,08,22,17.40
2008,05,17,08,23,17.50
2008,05,17,08,24,17.60
2008,05,17,08,25,17.60
2008,05,17,08,26,17.60
2008,05,17,08,27,17.70
2008,05,17,08,28,17.70
2008,05,17,08,29,17.70
2008,05,17,08,30,17.60
2008,05,17,08,31,17.60
2008,05,17,08,32,17.60
2008,05,17,08,33,17.60
2008,05,17,08,34,17.70
2008,05,17,08,35,17.70
2008,05,17,08,36,17.70
2008,05,17,08,37,17.80
2008,05,17,08,38,17.80
2008,05,17,08,39,17.80
2008,05,17,08,40,17.80
2008,05,17,08,41,17.80
2008,05,17,08,42,17.80
2008,05,17,08,43,17.90
2008,05,17,08,44,17.90
2008,05,17,08,45,17.90
2008,05,17,08,46,18.00
2008,05,17,08,47,18.00
2008,05,17,08,48,18.00
2008,05,17,08,49,17.90
2008,05,17,08,50,17.80
2008,05,17,08,51,17.80
2008,05,17,08,52,17.70
2008,05,17,08,53,17.70
2008,05,17,08,54,17.60
2008,05,17,08,55,17.60
2008,05,17,08,56,17.60
2008,05,17,08,57,17.60
2008,05,17,08,58,17.60
2008,05,17,08,59,17.60
2008,05,17,09,00,17.70
2008,05,17,09,01,17.70
2008,05,17,09,02,17.70
2008,05,17,09,03,17.70
2008,05,17,09,04,17.70
2008,05,17,09,05,17.70
2008,05,17,09,06,17.70
2008,05,17,09,07,17.70
2008,05,17,09,08,17.70
2008,05,17,09,09,17.70
2008,05,17,09,10,17.70
2008,05,17,09,11,17.80
2008,05,17,09,12,17.90
2008,05,17,09,13,17.90
2008,05,17,09,14,18.00
2008,05,17,09,15,18.10
2008,05,17,09,16,18.20
2008,05,17,09,17,18.20
2008,05,17,09,18,18.20
2008,05,17,09,19,18.10
2008,05,17,09,20,18.10
2008,05,17,09,21,18.20
2008,05,17,09,22,18.20
2008,05,17,09,23,18.20
2008,05,17,09,24,18.20
2008,05,17,09,25,18.30
2008,05,17,09,26,18.40
2008,05,17,09,27,18.50
2008,05,17,09,28,18.60
2008,05,17,09,29,18.60
2008,05,17,09,30,18.50
2008,05,17,09,31,18.40
2008,05,17,09,32,18.30
2008,05,17,09,33,18.30
2008,05,17,09,34,18.20
2008,05,17,09,35,18.20
2008,05,17,09,36,18.10
2008,05,17,09,37,18.10
2008,05,17,09,38,18.20
2008,05,17,09,39,18.20
2008,05,17,09,40,18.20
2008,05,17,09,41,18.20
2008,05,17,09,42,18.20
2008,05,17,09,43,18.20
2008,05,17,09,44,18.10
2008,05,17,09,45,18.10
2008,05,17,09,46,18.10
2008,05,17,09,47,18.10
2008,05,17,09,48,18.10
2008,05,17,09,49,18.10
2008,05,17,09,50,18.10
2008,05,17,09,51,18.10
2008,05,17,09,52,18.20
2008,05,17,09,53,18.30
2008,05,17,09,54,18.30
2008,05,17,09,55,18.30
2008,05,17,09,56,18.40
2008,05,17,09,57,18.40
2008,05,17,09,58,18.40
2008,05,17,09,59,18.50
2008,05,17,10,00,18.50
2008,05,17,10,01,18.60
2008,05,17,10,02,18.60
2008,05,17,10,03,18.70
2008,05,17,10,04,18.70
2008,05,17,10,05,18.70
2008,05,17,10,06,18.70
2008,05,17,10,07,18.70
2008,05,17,10,08,18.70
2008,05,17,10,09,18.80
2008,05,17,10,10,18.90
2008,05,17,10,11,18.90
2008,05,17,10,12,19.00
2008,05,17,10,13,19.10
2008,05,17,10,14,19.10
2008,05,17,10,15,19.20
2008,05,17,10,16,19.10
2008,05,17,10,17,19.10
2008,05,17,10,18,19.10
2008,05,17,10,19,19.20
2008,05,17,10,20,19.20
2008,05,17,10,21,19.10
2008,05,17,10,22,19.20
2008,05,17,10,23,19.20
2008,05,17,10,24,19.30
2008,05,17,10,25,19.30
2008,05,17,10,26,19.30
2008,05,17,10,27,19.40
2008,05,17,10,28,19.50
2008,05,17,10,29,19.60
2008,05,17,10,30,19.60
2008,05,17,10,31,19.70
2008,05,17,10,32,19.80
2008,05,17,10,33,19.80
2008,05,17,10,34,19.80
2008,05,17,10,35,19.80
2008,05,17,10,36,19.80
2008,05,17,10,37,19.80
2008,05,17,10,38,19.90
2008,05,17,10,39,19.90
2008,05,17,10,40,19.90
2008,05,17,10,41,20.00
2008,05,17,10,42,20.10
2008,05,17,10,43,20.20
2008,05,17,10,44,20.30
2008,05,17,10,45,20.30
2008,05,17,10,46,20.20
2008,05,17,10,47,20.20
2008,05,17,10,48,20.20
2008,05,17,10,49,20.20
2008,05,17,10,50,20.30
2008,05,17,10,51,20.40
2008,05,17,10,52,20.50
2008,05,17,10,53,20.60
2008,05,17,10,54,20.60
2008,05,17,10,55,20.70
2008,05,17,10,56,20.70
2008,05,17,10,57,20.70
2008,05,17,10,58,20.80
2008,05,17,10,59,20.90
2008,05,17,11,00,21.00
2008,05,17,11,01,21.10
2008,05,17,11,02,21.10
2008,05,17,11,03,21.20
2008,05,17,11,04,21.20
2008,05,17,11,05,21.30
2008,05,17,11,06,21.30
2008,05,17,11,07,21.50
2008,05,17,11,08,21.60
2008,05,17,11,09,21.60
2008,05,17,11,10,21.70
2008,05,17,11,11,21.70
2008,05,17,11,12,21.70
2008,05,17,11,13,21.70
2008,05,17,11,14,21.80
2008,05,17,11,15,21.80
2008,05,17,11,16,21.90
2008,05,17,11,17,21.90
2008,05,17,11,18,21.80
2008,05,17,11,19,21.80
2008,05,17,11,20,21.80
2008,05,17,11,21,21.90
2008,05,17,11,22,22.00
2008,05,17,11,23,22.00
2008,05,17,11,24,22.10
2008,05,17,11,25,22.10
2008,05,17,11,26,22.10
2008,05,17,11,27,22.10
2008,05,17,11,28,22.00
2008,05,17,11,29,21.90
2008,05,17,11,30,21.80
2008,05,17,11,31,21.70
2008,05,17,11,32,21.70
2008,05,17,11,33,21.70
2008,05,17,11,34,21.60
2008,05,17,11,35,21.60
2008,05,17,11,36,21.70
2008,05,17,11,37,21.80
2008,05,17,11,38,21.80
2008,05,17,11,39,21.80
2008,05,17,11,40,21.80
2008,05,17,11,41,21.80
2008,05,17,11,42,21.70
2008,05,17,11,43,21.70
2008,05,17,11,44,21.60
2008,05,17,11,45,21.60
2008,05,17,11,46,21.70
2008,05,17,11,47,21.70
2008,05,17,11,48,21.80
2008,05,17,11,49,21.80
2008,05,17,11,50,21.90
2008,05,17,11,51,21.90
2008,05,17,11,52,21.90
2008,05,17,11,53,22.00
2008,05,17,11,54,21.90
2008,05,17,11,55,22.00
2008,05,17,11,56,22.00
2008,05,17,11,57,21.90
2008,05,17,11,58,21.80
2008,05,17,11,59,21.80
2008,05,17,12,00,21.90
2008,05,17,12,01,21.90
2008,05,17,12,02,21.90
2008,05,17,12,03,22.00
2008,05,17,12,04,22.10
2008,05,17,12,05,22.10
2008,05,17,12,06,22.10
2008,05,17,12,07,22.20
2008,05,17,12,08,22.20
2008,05,17,12,09,22.20
2008,05,17,12,10,22.20
2008,05,17,12,11,22.30
2008,05,17,12,12,22.30
2008,05,17,12,13,22.20
2008,05,17,12,14,22.20
2008,05,17,12,15,22.10
2008,05,17,12,16,22.10
2008,05,17,12,17,22.00
2008,05,17,12,18,22.00
2008,05,17,12,19,22.00
2008,05,17,12,20,22.00
2008,05,17,12,21,22.00
2008,05,17,12,22,22.10
2008,05,17,12,23,22.10
2008,05,17,12,24,22.10
2008,05,17,12,25,22.10
2008,05,17,12,26,22.20
2008,05,17,12,27,22.20
2008,05,17,12,28,22.20
2008,05,17,12,29,22.20
2008,05,17,12,30,22.20
2008,05,17,12,31,22.30
2008,05,17,12,32,22.30
2008,05,17,12,33,22.30
2008,05,17,12,34,22.30
2008,05,17,12,35,22.30
2008,05,17,12,36,22.30
2008,05,17,12,37,22.30
2008,05,17,12,38,22.30
2008,05,17,12,39,22.20
2008,05,17,12,40,22.20
2008,05,17,12,41,22.20
2008,05,17,12,42,22.20
2008,05,17,12,43,22.20
2008,05,17,12,44,22.20
2008,05,17,12,45,22.20
2008,05,17,12,46,22.30
2008,05,17,12,47,22.30
2008,05,17,12,48,22.40
2008,05,17,12,49,22.50
2008,05,17,12,50,22.60
2008,05,17,12,51,22.60
2008,05,17,12,52,22.60
2008,05,17,12,53,22.70
2008,05,17,12,54,22.70
2008,05,17,12,55,22.80
2008,05,17,12,56,22.80
2008,05,17,12,57,22.80
2008,05,17,12,58,22.90
2008,05,17,12,59,23.00
2008,05,17,13,00,23.10
2008,05,17,13,01,23.20
2008,05,17,13,02,23.20
2008,05,17,13,03,23.20
2008,05,17,13,04,23.20
2008,05,17,13,05,23.20
2008,05,17,13,06,23.20
2008,05,17,13,07,23.20
2008,05,17,13,08,23.20
2008,05,17,13,09,23.30
2008,05,17,13,10,23.20
2008,05,17,13,11,23.20
2008,05,17,13,12,23.20
2008,05,17,13,13,23.10
2008,05,17,13,14,23.10
2008,05,17,13,15,23.10
2008,05,17,13,16,23.10
2008,05,17,13,17,23.00
2008,05,17,13,18,22.90
2008,05,17,13,19,22.80
2008,05,17,13,20,22.80
2008,05,17,13,21,22.90
2008,05,17,13,22,23.00
2008,05,17,13,23,23.10
2008,05,17,13,24,23.30
2008,05,17,13,25,23.30
2008,05,17,13,26,23.40
2008,05,17,13,27,23.40
2008,05,17,13,28,23.40
2008,05,17,13,29,23.40
2008,05,17,13,30,23.30
2008,05,17,13,31,23.30
2008,05,17,13,32,23.30
2008,05,17,13,33,23.30
2008,05,17,13,34,23.30
2008,05,17,13,35,23.20
2008,05,17,13,36,23.20
2008,05,17,13,37,23.10
2008,05,17,13,38,23.20
2008,05,17,13,39,23.20
2008,05,17,13,40,23.20
2008,05,17,13,41,23.20
2008,05,17,13,42,23.20
2008,05,17,13,43,23.20
2008,05,17,13,44,23.20
2008,05,17,13,45,23.30
2008,05,17,13,46,23.30
2008,05,17,13,47,23.30
2008,05,17,13,48,23.30
2008,05,17,13,49,23.30
2008,05,17,13,50,23.20
2008,05,17,13,51,23.20
2008,05,17,13,52,23.20
2008,05,17,13,53,23.20
2008,05,17,13,54,23.30
2008,05,17,13,55,23.30
2008,05,17,13,56,23.30
2008,05,17,13,57,23.30
2008,05,17,13,58,23.50
2008,05,17,13,59,23.60
2008,05,17,14,00,23.70
2008,05,17,14,01,23.80
2008,05,17,14,02,23.90
2008,05,17,14,03,23.80
2008,05,17,14,04,23.80
2008,05,17,14,05,23.70
2008,05,17,14,06,23.80
2008,05,17,14,07,23.90
2008,05,17,14,08,24.00
2008,05,17,14,09,24.10
2008,05,17,14,10,24.20
2008,05,17,14,11,24.30
2008,05,17,14,12,24.40
2008,05,17,14,13,24.50
2008,05,17,14,14,24.50
2008,05,17,14,15,24.60
2008,05,17,14,16,24.60
2008,05,17,14,17,24.60
2008,05,17,14,18,24.50
2008,05,17,14,19,24.40
2008,05,17,14,20,24.40
2008,05,17,14,21,24.40
2008,05,17,14,22,24.40
2008,05,17,14,23,24.40
2008,05,17,14,24,24.40
2008,05,17,14,25,24.50
2008,05,17,14,26,24.50
2008,05,17,14,27,24.60
2008,05,17,14,28,24.80
2008,05,17,14,29,24.90
2008,05,17,14,30,25.00
2008,05,17,14,31,25.10
2008,05,17,14,32,25.10
2008,05,17,14,33,25.10
2008,05,17,14,34,25.10
2008,05,17,14,35,25.10
2008,05,17,14,36,25.20
2008,05,17,14,37,25.30
2008,05,17,14,38,25.40
2008,05,17,14,39,25.60
2008,05,17,14,40,25.70
2008,05,17,14,41,25.90
2008,05,17,14,42,25.90
2008,05,17,14,43,25.90
2008,05,17,14,44,26.00
2008,05,17,14,45,26.10
2008,05,17,14,46,26.10
2008,05,17,14,47,26.20
2008,05,17,14,48,26.20
2008,05,17,14,49,26.20
2008,05,17,14,50,26.20
2008,05,17,14,51,26.20
2008,05,17,14,52,26.10
2008,05,17,14,53,26.10
2008,05,17,14,54,26.00
2008,05,17,14,55,26.00
2008,05,17,14,56,26.10
2008,05,17,14,57,26.10
2008,05,17,14,58,26.10
2008,05,17,14,59,26.20
2008,05,17,15,00,26.20
2008,05,17,15,01,26.20
2008,05,17,15,02,26.30
2008,05,17,15,03,26.40
2008,05,17,15,04,26.40
2008,05,17,15,05,26.50
2008,05,17,15,06,26.60
2008,05,17,15,07,26.70
2008,05,17,15,08,26.80
2008,05,17,15,09,26.90
2008,05,17,15,10,27.10
2008,05,17,15,11,27.30
2008,05,17,15,12,27.30
2008,05,17,15,13,27.30
2008,05,17,15,14,27.30
2008,05,17,15,15,27.30
2008,05,17,15,16,27.30
2008,05,17,15,17,27.20
2008,05,17,15,18,27.00
2008,05,17,15,19,26.80
2008,05,17,15,20,26.80
2008,05,17,15,21,26.70
2008,05,17,15,22,26.60
2008,05,17,15,23,26.40
2008,05,17,15,24,26.20
2008,05,17,15,25,26.00
2008,05,17,15,26,25.90
2008,05,17,15,27,25.70
2008,05,17,15,28,25.70
2008,05,17,15,29,25.70
2008,05,17,15,30,25.70
2008,05,17,15,31,25.70
2008,05,17,15,32,25.50
2008,05,17,15,33,25.30
2008,05,17,15,34,25.00
2008,05,17,15,35,24.80
2008,05,17,15,36,24.80
2008,05,17,15,37,24.80
2008,05,17,15,38,24.80
2008,05,17,15,39,24.90
2008,05,17,15,40,24.80
2008,05,17,15,41,24.80
2008,05,17,15,42,24.70
2008,05,17,15,43,24.70
2008,05,17,15,44,24.70
2008,05,17,15,45,24.70
2008,05,17,15,46,24.70
2008,05,17,15,47,24.70
2008,05,17,15,48,24.70
2008,05,17,15,49,24.70
2008,05,17,15,50,24.80
2008,05,17,15,51,24.80
2008,05,17,15,52,24.80
2008,05,17,15,53,24.80
2008,05,17,15,54,24.70
2008,05,17,15,55,24.80
2008,05,17,15,56,24.80
2008,05,17,15,57,24.80
2008,05,17,15,58,24.80
2008,05,17,15,59,24.80
2008,05,17,16,00,24.90
2008,05,17,16,01,24.90
2008,05,17,16,02,24.90
2008,05,17,16,03,24.90
2008,05,17,16,04,24.90
2008,05,17,16,05,24.80
2008,05,17,16,06,24.80
2008,05,17,16,07,24.80
2008,05,17,16,08,24.80
2008,05,17,16,09,24.60
2008,05,17,16,10,24.50
2008,05,17,16,11,24.40
2008,05,17,16,12,24.30
2008,05,17,16,13,24.40
2008,05,17,16,14,24.50
2008,05,17,16,15,24.50
2008,05,17,16,16,24.60
2008,05,17,16,17,24.60
2008,05,17,16,18,24.60
2008,05,17,16,19,24.70
2008,05,17,16,20,24.80
2008,05,17,16,21,24.80
2008,05,17,16,22,24.80
2008,05,17,16,23,24.90
2008,05,17,16,24,25.00
2008,05,17,16,25,25.10
2008,05,17,16,26,25.20
2008,05,17,16,27,25.20
2008,05,17,16,28,25.20
2008,05,17,16,29,25.20
2008,05,17,16,30,25.30
2008,05,17,16,31,25.30
2008,05,17,16,32,25.30
2008,05,17,16,33,25.30
2008,05,17,16,34,25.20
2008,05,17,16,35,25.10
2008,05,17,16,36,25.10
2008,05,17,16,37,25.00
2008,05,17,16,38,25.00
2008,05,17,16,39,25.10
2008,05,17,16,40,25.10
2008,05,17,16,41,25.00
2008,05,17,16,42,24.90
2008,05,17,16,43,24.90
2008,05,17,16,44,24.90
2008,05,17,16,45,24.90
2008,05,17,16,46,24.90
2008,05,17,16,47,24.80
2008,05,17,16,48,24.80
2008,05,17,16,49,24.70
2008,05,17,16,50,24.70
2008,05,17,16,51,24.60
2008,05,17,16,52,24.70
2008,05,17,16,53,24.70
2008,05,17,16,54,24.80
2008,05,17,16,55,24.80
2008,05,17,16,56,24.80
2008,05,17,16,57,24.80
2008,05,17,16,58,24.70
2008,05,17,16,59,24.60
2008,05,17,17,00,24.50
2008,05,17,17,01,24.40
2008,05,17,17,02,24.30
2008,05,17,17,03,24.30
2008,05,17,17,04,24.30
2008,05,17,17,05,24.30
2008,05,17,17,06,24.40
2008,05,17,17,07,24.40
2008,05,17,17,08,24.50
2008,05,17,17,09,24.50
2008,05,17,17,10,24.50
2008,05,17,17,11,24.60
2008,05,17,17,12,24.60
2008,05,17,17,13,24.60
2008,05,17,17,14,24.60
2008,05,17,17,15,24.60
2008,05,17,17,16,24.60
2008,05,17,17,17,24.60
2008,05,17,17,18,24.50
2008,05,17,17,19,24.50